Location: Palomar Mountain Lodge
(33.3110°N, 116.8495°W)
Time: 05:36:51
(UTC-07:00)

H-2A R/B - Pass Details

Date: 19 May 2017
Orbit: 734 x 837 km, 98.4° (Epoch: 22 July)

Event Time Altitude Azimuth Distance (km) Brightness Sun altitude
Exits shadow 20:57:48 - 78° (ENE) 2,304 4.1 -14.2°
Reaches altitude 10° 20:58:53 10° 66° (ENE) 2,241 4.1 -14.4°
Maximum altitude 20:59:07 10° 63° (ENE) 2,240 4.2 -14.4°
Drops below altitude 10° 20:59:21 10° 60° (ENE) 2,243 4.2 -14.4°
Sets 21:04:25 0° 15° (NNE) 3,192 5.5 -15.3°
